Location: Radomski Observatory
(40.2854°N, 79.5145°W)
Time: 20:52:56
(UTC-04:00)

Cosmos 1072 Rocket - Visible Passes

Search period start: 26 March 2017 00:00
Search period end: 05 April 2017 00:00
Orbit: 950 x 1007 km, 82.9° (Epoch: 25 March)

Date Brightness Start Highest point End Pass type
(mag) Time Alt. Az. Time Alt. Az. Time Alt. Az.
26 Mar 6.6 00:23:00 21° NNW 00:23:00 21° NNW 00:25:21 10° N visible
26 Mar 6.1 23:04:05 25° NNE 23:04:05 25° NNE 23:06:37 10° NNE visible
27 Mar 6.9 00:48:47 16° NW 00:48:47 16° NW 00:50:50 10° NNW visible
27 Mar 6.6 21:45:09 12° NE 21:45:09 12° NE 21:45:43 10° NE visible
27 Mar 6.0 23:29:50 31° N 23:29:50 31° N 23:33:02 10° N visible
28 Mar 6.1 22:10:52 21° NE 22:10:52 21° NE 22:13:22 10° NNE visible
28 Mar 6.2 23:55:34 29° NNW 23:55:34 29° NNW 23:59:08 10° N visible
29 Mar 5.5 22:36:33 35° NNE 22:36:33 35° NNE 22:40:16 10° NNE visible
30 Mar 6.6 00:21:15 21° NW 00:21:15 21° NW 00:24:45 10° NNW visible
30 Mar 6.3 21:17:30 13° ENE 21:17:30 13° ENE 21:19:02 10° NE visible
30 Mar 5.2 23:02:11 49° N 23:02:11 49° N 23:06:45 10° N visible
31 Mar 7.0 00:46:52 12° WNW 00:46:52 12° WNW 00:49:05 10° NW visible
31 Mar 5.7 21:43:05 25° ENE 21:43:05 25° ENE 21:46:55 10° NNE visible
31 Mar 5.6 23:27:46 41° NW 23:27:46 41° NW 23:32:54 10° N visible
01 Apr 4.9 22:08:36 48° ENE 22:08:36 48° ENE 22:13:54 10° NNE visible
01 Apr 6.3 23:53:16 25° WNW 23:53:28 25° WNW 23:58:37 10° NNW visible
02 Apr 6.2 20:49:21 13° E 20:49:32 13° ENE 20:52:15 10° NE visible
02 Apr 4.4 22:34:01 88° WNW 22:34:01 88° WNW 22:40:27 10° N visible
03 Apr 7.0 00:18:42 12° W 00:20:22 13° WNW 00:23:22 10° NW visible
03 Apr 5.5 21:14:41 25° E 21:15:24 25° E 21:20:27 10° NNE visible
03 Apr 5.2 22:59:21 45° WSW 23:00:26 49° WNW 23:06:39 10° N visible
04 Apr 4.8 21:39:55 39° SE 21:41:27 46° E 21:47:31 10° NNE visible
04 Apr 6.2 23:24:34 21° WSW 23:27:05 27° WNW 23:32:28 10° NNW visible
